Location: La Pernelle
(49.6188°N, 1.2999°W)
Time: 10:20:03
(UTC+00:00)

Cosmos 1624 Rocket - Pass Details

Date: 12 June 2021
Orbit: 758 x 783 km, 74.0° (Epoch: 03 August)

Event Time Altitude Azimuth Distance (km) Brightness Sun altitude
Rises 21:13:37 0° 200° (SSW) 3,257 6.9 -7.8°
Reaches altitude 10° 21:15:59 10° 200° (SSW) 2,331 6.2 -8.1°
Maximum altitude 21:21:18 87° 113° (ESE) 787 4.1 -8.6°
Drops below altitude 10° 21:26:38 10° 24° (NNE) 2,335 6.9 -9.1°
Sets 21:29:00 0° 24° (NNE) 3,262 7.7 -9.3°
